VANGUARD DEB, 1576

Orbit data source: Space-Track

VANGUARD DEB, 1576 is space debris in LEO originally from a launch on Mon, 17 Mar 1958 UTC launched from the Air Force Eastern Test Range (AFETR). Debris objects in space refer to the collection of defunct objects orbiting the Earth. Examples of debris include non-operational satellites, rocket bodies, and fragments generated from explosions, collisions, or faulty payload assembly.

Loading next visibility...
Identifier
1576, 1958-002C
Orbit
LEO
Country
Flag of USUS
Related business
Manufacturer
NRL
Mission
Spacecraft
Bus & Motor
Unknown
Mass
Unknown
Launch date (UTC)
1958-03-17 (68 years ago)
Launch vehicle
Unknown
Launch site
Air Force Eastern Test Range (AFETR)
Object type
Payload
Rocket body
Debris
Shape & HBR
Unknown shape, 0.1 m
Radar Cross Section
Small (<0.1 m²)

Expand to show TLE details & history
Last TLE update: 14 hours ago

TLE from 14 hours ago
0 VANGUARD DEB
1  1576U 58002C   26124.77154025  .00003776  00000-0  35205-2 0  9990
2  1576  34.2201 268.6383 1378308 147.0739 222.3834 11.82786644796968
Epoch: 2026-05-04T18:31Z
TLE epoch observation values (Epoch: 2026-05-04T18:31:01.077Z)
Latitude
-0.00001°
Longitude
128.22785°
Altitude
2,646.684 km
Speed
6.275 km/s
True Right ascension
17h 54m 33s
True Declination
0° 00' 00"
Sunlit
Object was in daylight at epoch
Visualization orbit readout
Latitude
Unknown
Longitude
Unknown
Altitude
Unknown
Speed
Unknown
Apparent Right ascension
Unknown
Apparent Declination
Unknown
Sunlit
N/A
Visualization observer readout
Local Sidereal Time
16:20:45
Azimuth
Unknown
Elevation
Unknown
Doppler factor
Unknown
Orbital elements
Apogee altitude
2,883.728 km
Perigee altitude
639.862 km
Semi-major axis
8,139.932 km
Eccentricity
0.13783
Inclination
34.2201°
RAAN
268.6383°
Arg. of periapsis
147.0739°
True anomaly
212.98459°
Mean anomaly
222.3834°
Eccentric anomaly
217.56845°
Mean motion
2.95537 °/min
Orbital period
121.81 mins
BSTAR
0.0035205
Loading maneuver chart data...
Computing Atmospheric mass density...
Loading historical data...
Loading historical data...
Loading historical data...
Loading historical data...
Loading historical data...
Loading historical data...
Loading historical data...
Other satellites on launch #2 in the year 1958 (1958-03-17 UTC)

Documentation

Showing up to 5 results
|